[[{"header":{"parameterUnit":"m.s-1","parameterCategory":1,"la1":30.2991,"la2":30.254,"lo1":-89.0895,"lo2":-89.0444,"dy":0.0017,"dx":0.0017,"nx":28,"ny":28,"refTime":"2024-06-20T09:00:00:Z","depth":0,"parameterNumber":2,"parameterNumberName":"U-component_of_WINDS"},"data":[0,0,0,0,0,0,0,0,0,0,0,0,0,0,0,0,0,0,0,0,0,0,0,0,0,0,0,0,0,0,0,0,0,0,0,0,0,0,0,0,0,0,0,0,0,0,0,0,0,0,0,0,0,0,0,0,0,0,-4.4607,-4.4606,0,-4.4586,-4.4585,-4.4585,-4.4387,-4.4382,-4.4377,-4.4372,-4.4355,-4.4359,-4.4363,0,0,0,0,0,0,0,0,0,0,0,0,0,-4.4478,-4.4481,-4.4607,-4.4606,-4.4606,-4.4586,-4.4585,-4.4585,-4.4388,-4.4382,-4.4375,-4.437,-4.4353,-4.4358,-4.4363,0,0,0,0,0,0,0,0,0,0,0,0,0,-4.4503,-4.4482,-4.4607,-4.4505,-4.4496,-4.4586,-4.4585,-4.4585,-4.4389,-4.4381,-4.4374,-4.4367,-4.4352,-4.4358,-4.4364,-4.4551,0,0,-4.4383,-4.4386,0,0,0,0,0,0,0,0,-4.4502,-4.4508,-4.452,-4.4512,-4.4502,-4.4481,-4.4533,-4.4574,-4.4391,-4.443,-4.4372,-4.4363,-4.4403,-4.4405,-4.4417,-4.4551,-4.455,-4.4384,-4.4387,-4.439,-4.4392,0,0,0,0,0,0,0,-4.4501,-4.4508,-4.4598,-4.4521,-4.4509,-4.4461,-4.4457,-4.454,-4.4459,-4.4426,-4.4411,-4.4411,-4.4397,-4.4412,-4.4415,-4.455,-4.4383,-4.4389,-4.4393,-4.4395,-4.4835,-4.4842,0,0,0,0,0,0,-4.4513,-4.4508,-4.4599,-4.4598,-4.4484,-4.447,-4.4464,-4.4495,-4.4457,-4.4444,-4.4418,-4.4402,-4.4405,-4.4408,-4.4414,-4.463,-4.439,-4.4396,-4.44,-4.4827,-4.4836,-4.4845,0,0,0,0,0,0,-4.4511,-4.4523,-4.46,-4.4549,-4.4555,-4.448,-4.4516,-4.4499,-4.4513,-4.4451,-4.4435,-4.4448,-4.4399,-4.4405,-4.4518,-4.4627,-4.4399,-4.4404,-4.4817,-4.483,-4.4841,-4.5065,0,0,0,0,0,0,-4.4508,-4.4523,-4.4593,-4.4552,-4.4559,-4.4705,-4.4523,-4.4504,-4.4524,-4.4504,-4.4475,-4.4463,-4.4394,-4.451,-4.4525,-4.4631,-4.4409,-4.4807,-4.4823,-4.4837,-4.5048,-4.5083,-4.5114,0,0,0,0,0,-4.4504,-4.4658,-4.4598,-4.461,-4.4644,-4.4711,-4.4715,-4.4631,-4.4534,-4.4604,-4.4563,-4.4464,-4.4613,-4.4523,-4.4538,-4.4648,-4.48,-4.4819,-4.4836,-4.5033,-4.5076,-4.5113,0,0,0,0,0,0,-4.4716,-4.4651,-4.4583,-4.4729,-4.4727,-4.4677,-4.4763,-4.4679,-4.4706,-4.4686,-4.4581,-4.4576,-4.4705,-4.4688,-4.4589,-4.4827,-4.4689,-4.4711,-4.4834,-4.4875,-4.4907,-4.4909,-4.4414,0,0,0,0,0,-4.478,-4.4838,-4.4778,-4.4913,-4.4915,-4.484,-4.4866,-4.4801,-4.4795,-4.4794,-4.4761,-4.4761,-4.4806,-4.4839,-4.4878,-4.5044,-4.5035,-4.5127,-4.516,-4.5187,-4.5207,-4.5293,-4.5333,-4.4904,-4.4903,-4.4903,0,0,-4.4912,-4.4883,-4.4927,-4.4955,-4.4945,-4.5009,-4.4841,-4.4916,-4.4962,-4.4805,-4.4909,-4.4886,-4.4878,-4.5018,-4.5078,-4.5008,-4.5324,-4.521,-4.5232,-4.5237,-4.5316,-4.5356,-4.5393,-4.4916,-4.4913,-4.4912,0,0,-4.5185,-4.517,-4.5279,-4.5273,-4.526,-4.5209,-4.5236,-4.5199,-4.5177,-4.5279,-4.5163,-4.5217,-4.5299,-4.5298,-4.5308,-4.558,-4.549,-4.5596,-4.5769,-4.5853,-4.5887,-4.5917,-4.6014,-4.605,-4.5616,-4.5617,-4.5617,0,-4.5352,-4.5442,-4.5347,-4.5429,-4.5444,-4.5303,-4.5414,-4.5413,-4.5415,-4.5429,-4.535,-4.5448,-4.5433,-4.5571,-4.5637,-4.565,-4.5677,-4.5599,-4.589,-4.5918,-4.5944,-4.6036,-4.6073,-4.563,-4.5628,-4.5627,-4.5626,0,-4.5647,-4.5711,-4.5801,-4.5805,-4.583,-4.5927,-4.5847,-4.5884,-4.5817,-4.5774,-4.5881,-4.5857,-4.5889,-4.5916,-4.5852,-4.6045,-4.6001,-4.5908,-4.5767,-4.6,-4.6084,-4.6118,-4.5648,-4.5644,-4.564,-4.5636,0,0,-4.6055,-4.6002,-4.6037,-4.6037,-4.6012,-4.606,-4.615,-4.6179,-4.6214,-4.622,-4.6293,-4.6364,-4.6277,-4.6289,-4.6223,-4.6298,-4.6514,-4.6194,-4.6192,-4.6254,-4.6725,-4.6796,-4.6838,-4.6454,-4.646,-4.6465,-4.6726,0,-4.6317,-4.6466,-4.6383,-4.6544,-4.6602,-4.6469,-4.6547,-4.6541,-4.6503,-4.6548,-4.6507,-4.6559,-4.644,-4.6446,-4.6514,-4.6474,-4.6607,-4.6454,-4.6522,-4.6525,-4.6528,-4.6882,-4.6957,-4.7205,-4.6758,-4.6764,-4.6767,0,-4.6644,-4.6662,-4.6829,-4.6792,-4.6813,-4.6885,-4.6904,-4.6948,-4.6939,-4.6906,-4.692,-4.6835,-4.6921,-4.6782,-4.6899,-4.6797,-4.6819,-4.6804,-4.6811,-4.6815,-4.6661,-4.6895,-4.7281,-4.7319,-4.6818,-4.6814,-4.6811,0,-4.6925,-4.6991,-4.7098,-4.7102,-4.7062,-4.7115,-4.7101,-4.7084,-4.7107,-4.7124,-4.7138,-4.7166,-4.7182,-4.7206,-4.7132,-4.7037,-4.726,-4.7114,-4.7236,-4.7238,-4.7289,-4.7287,-4.7685,-4.7304,-4.7304,-4.7303,-4.7302,0,-4.7227,-4.7334,-4.7223,-4.729,-4.7406,-4.7309,-4.7427,-4.7399,-4.7385,-4.7444,-4.7331,-4.7389,-4.7288,-4.7336,-4.7279,-4.7385,-4.7393,-4.737,-4.7353,-4.738,-4.7383,-4.7394,-4.7375,-4.7313,-4.731,-4.7309,-4.7307,0,-4.756,-4.749,-4.7599,-4.7551,-4.7541,-4.7629,-4.7589,-4.7649,-4.7603,-4.768,-4.7692,-4.7621,-4.7672,-4.76,-4.7644,-4.7606,-4.7751,-4.7709,-4.7754,-4.7742,-4.7868,-4.7857,-4.8286,-4.8338,-4.7925,-4.7929,-4.7932,0,-4.7758,-4.7836,-4.7797,-4.7827,-4.7819,-4.7871,-4.7892,-4.78,-4.7828,-4.7822,-4.7884,-4.7925,-4.7952,-4.8041,-4.7994,-4.8027,-4.7984,-4.8132,-4.7989,-4.8013,-4.7986,-4.7983,-4.799,-4.8162,-4.8167,-4.8171,-4.8175,0,-4.8116,-4.8077,-4.8111,-4.8135,-4.8164,-4.8179,-4.8185,-4.8217,-4.812,-4.8157,-4.8206,-4.8228,-4.8272,-4.8315,-4.8335,-4.8321,-4.8233,-4.822,-4.825,-4.8278,-4.8301,-4.829,-4.7835,-4.8211,-4.8207,-4.8204,-4.8203,-4.8201,-4.8386,-4.845,-4.8432,-4.8474,-4.8469,-4.8477,-4.8531,-4.8491,-4.853,-4.8558,-4.8501,-4.8565,-4.8553,-4.8571,-4.8568,-4.8617,-4.8552,-4.8596,-4.8607,-4.8619,-4.8638,-4.8293,-4.862,-4.8619,-4.8618,-4.8617,-4.8616,0,-4.8738,-4.8719,-4.8759,-4.8771,-4.8805,-4.8716,-4.8718,-4.8753,-4.881,-4.8805,-4.8835,-4.8892,-4.8933,-4.8889,-4.8921,-4.8969,-4.8929,-4.8981,-4.8977,-4.8975,-4.8694,-4.8665,-4.9012,-4.9012,-4.9012,-4.9012,-4.9012,-4.9012,-4.8925,-4.9028,-4.8987,-4.9086,-4.9066,-4.9127,-4.9136,-4.9143,-4.9138,-4.9207,-4.9239,-4.921,-4.9189,-4.9219,-4.9253,-4.9239,-4.9256,-4.9322,-4.9295,-4.9033,-4.8995,-4.8958,-4.893,-4.9327,-4.9327,-4.957,-4.9573,-4.9574]},{"header":{"parameterUnit":"m.s-1","parameterCategory":1,"la1":30.2991,"la2":30.254,"lo1":-89.0895,"lo2":-89.0444,"dy":0.0017,"dx":0.0017,"nx":28,"ny":28,"refTime":"2024-06-20T09:00:00:Z","depth":0,"parameterNumber":3,"parameterNumberName":"V-component_of_WINDS"},"data":[0,0,0,0,0,0,0,0,0,0,0,0,0,0,0,0,0,0,0,0,0,0,0,0,0,0,0,0,0,0,0,0,0,0,0,0,0,0,0,0,0,0,0,0,0,0,0,0,0,0,0,0,0,0,0,0,0,0,-0.2734,-0.2734,0,-0.271,-0.2709,-0.2709,-0.2728,-0.2729,-0.273,-0.273,-0.2704,-0.2703,-0.2702,0,0,0,0,0,0,0,0,0,0,0,0,0,-0.2794,-0.2793,-0.2734,-0.2734,-0.2734,-0.271,-0.2709,-0.2709,-0.2728,-0.2729,-0.273,-0.2731,-0.2705,-0.2703,-0.2701,0,0,0,0,0,0,0,0,0,0,0,0,0,-0.2769,-0.2793,-0.2734,-0.274,-0.274,-0.271,-0.2709,-0.2709,-0.2728,-0.2729,-0.273,-0.2731,-0.2705,-0.2703,-0.2701,-0.2663,0,0,-0.2694,-0.2694,0,0,0,0,0,0,0,0,-0.277,-0.2767,-0.274,-0.274,-0.274,-0.2723,-0.2721,-0.2693,-0.2727,-0.2732,-0.273,-0.2732,-0.271,-0.2707,-0.27,-0.2662,-0.2661,-0.2694,-0.2693,-0.2692,-0.2691,0,0,0,0,0,0,0,-0.2772,-0.2768,-0.2724,-0.2739,-0.2739,-0.2743,-0.2741,-0.2716,-0.2714,-0.2732,-0.2733,-0.273,-0.271,-0.2702,-0.2699,-0.266,-0.2694,-0.2692,-0.2691,-0.269,-0.2587,-0.2586,0,0,0,0,0,0,-0.2773,-0.2769,-0.2725,-0.2724,-0.2758,-0.2741,-0.2738,-0.2727,-0.2715,-0.2714,-0.2729,-0.2731,-0.2705,-0.2702,-0.2699,-0.2652,-0.2692,-0.269,-0.2689,-0.2588,-0.2587,-0.2585,0,0,0,0,0,0,-0.2775,-0.2769,-0.2726,-0.2747,-0.2742,-0.2739,-0.2726,-0.2726,-0.2718,-0.2713,-0.2712,-0.2722,-0.2706,-0.2702,-0.2671,-0.2651,-0.2689,-0.2687,-0.259,-0.2588,-0.2586,-0.2558,0,0,0,0,0,0,-0.2776,-0.277,-0.2756,-0.2746,-0.274,-0.27,-0.2725,-0.2725,-0.2714,-0.2717,-0.2705,-0.2705,-0.2706,-0.2674,-0.2669,-0.2649,-0.2685,-0.2592,-0.2589,-0.2587,-0.2561,-0.2556,-0.2551,0,0,0,0,0,-0.2778,-0.275,-0.2755,-0.275,-0.2723,-0.2699,-0.2696,-0.2699,-0.2713,-0.2698,-0.2694,-0.2705,-0.2654,-0.2671,-0.2665,-0.2644,-0.2593,-0.259,-0.2587,-0.2563,-0.2557,-0.2551,0,0,0,0,0,0,-0.2758,-0.2749,-0.2755,-0.2722,-0.2711,-0.2702,-0.2685,-0.2692,-0.2677,-0.2679,-0.2683,-0.2681,-0.2648,-0.2643,-0.2662,-0.2605,-0.2626,-0.2621,-0.261,-0.2603,-0.2598,-0.2601,-0.2684,0,0,0,0,0,-0.2749,-0.2731,-0.2724,-0.2696,-0.269,-0.2688,-0.2678,-0.2681,-0.2669,-0.2665,-0.2659,-0.2646,-0.2627,-0.2615,-0.2598,-0.256,-0.2557,-0.2542,-0.2537,-0.2533,-0.2529,-0.2507,-0.25,-0.2575,-0.2575,-0.2575,0,0,-0.2732,-0.2725,-0.2713,-0.2691,-0.2683,-0.2663,-0.2684,-0.2662,-0.2647,-0.2661,-0.2632,-0.2627,-0.2613,-0.2579,-0.2563,-0.2573,-0.2507,-0.2529,-0.2525,-0.2524,-0.2503,-0.2496,-0.2489,-0.2572,-0.2573,-0.2573,0,0,-0.269,-0.2683,-0.2658,-0.2649,-0.2636,-0.2635,-0.2628,-0.2618,-0.2615,-0.2585,-0.2595,-0.2576,-0.2544,-0.2533,-0.2524,-0.2474,-0.2482,-0.2468,-0.2442,-0.242,-0.2414,-0.2409,-0.239,-0.2383,-0.2464,-0.2464,-0.2464,0,-0.2671,-0.2641,-0.2645,-0.2621,-0.2611,-0.2622,-0.2595,-0.2586,-0.2568,-0.256,-0.2571,-0.2529,-0.2521,-0.2483,-0.2471,-0.2463,-0.2455,-0.247,-0.2414,-0.2409,-0.2404,-0.2386,-0.2379,-0.2462,-0.2462,-0.2463,-0.2463,0,-0.2617,-0.2596,-0.2577,-0.2559,-0.2546,-0.2521,-0.2519,-0.2505,-0.2509,-0.2505,-0.2474,-0.2464,-0.2444,-0.2435,-0.2438,-0.2396,-0.2403,-0.2414,-0.2435,-0.2395,-0.2379,-0.2372,-0.246,-0.246,-0.2461,-0.2461,0,0,-0.2564,-0.2545,-0.2538,-0.2529,-0.2514,-0.2497,-0.2472,-0.2452,-0.2439,-0.2425,-0.2403,-0.2374,-0.2384,-0.2373,-0.2375,-0.2356,-0.2315,-0.2369,-0.2369,-0.2359,-0.2266,-0.2258,-0.225,-0.232,-0.2319,-0.2318,-0.2267,0,-0.252,-0.2477,-0.2478,-0.2437,-0.2417,-0.2426,-0.2403,-0.2391,-0.2386,-0.2367,-0.2362,-0.2341,-0.2356,-0.2349,-0.233,-0.2324,-0.2296,-0.2328,-0.2299,-0.2298,-0.2302,-0.2242,-0.2233,-0.2186,-0.2261,-0.226,-0.2259,0,-0.2465,-0.2449,-0.2406,-0.2391,-0.2383,-0.2363,-0.2343,-0.2325,-0.231,-0.2308,-0.2294,-0.2298,-0.2271,-0.2292,-0.2253,-0.2274,-0.2262,-0.2257,-0.2255,-0.2253,-0.2276,-0.2237,-0.2171,-0.2164,-0.2249,-0.225,-0.225,0,-0.2429,-0.2396,-0.2366,-0.2358,-0.2341,-0.2326,-0.2318,-0.2304,-0.2291,-0.2273,-0.2264,-0.2244,-0.2232,-0.2215,-0.2213,-0.2228,-0.2173,-0.2194,-0.217,-0.217,-0.2159,-0.2159,-0.209,-0.2151,-0.2151,-0.2151,-0.2151,0,-0.2381,-0.2355,-0.2349,-0.2331,-0.23,-0.23,-0.227,-0.2263,-0.225,-0.2229,-0.2235,-0.2215,-0.2213,-0.2191,-0.2189,-0.2156,-0.2151,-0.2148,-0.2148,-0.2147,-0.2148,-0.214,-0.2143,-0.2149,-0.2149,-0.215,-0.215,0,-0.2337,-0.2333,-0.23,-0.2285,-0.2281,-0.2259,-0.2246,-0.2227,-0.2222,-0.2195,-0.2189,-0.2181,-0.2156,-0.2151,-0.2122,-0.2121,-0.2081,-0.2084,-0.2087,-0.2087,-0.2062,-0.2064,-0.1985,-0.1974,-0.2042,-0.2042,-0.2041,0,-0.2307,-0.2286,-0.2269,-0.2255,-0.2246,-0.2224,-0.221,-0.2209,-0.2194,-0.2173,-0.2157,-0.2132,-0.2113,-0.2072,-0.2063,-0.204,-0.2043,-0.2016,-0.2039,-0.2039,-0.2041,-0.2042,-0.204,-0.2012,-0.2011,-0.2011,-0.201,0,-0.2253,-0.2251,-0.2232,-0.221,-0.2193,-0.2176,-0.216,-0.2148,-0.2144,-0.2127,-0.2101,-0.2086,-0.2055,-0.203,-0.2007,-0.1997,-0.2002,-0.2003,-0.1996,-0.1995,-0.1997,-0.1995,-0.2074,-0.2005,-0.2005,-0.2006,-0.2006,-0.2006,-0.2215,-0.2196,-0.218,-0.2157,-0.2144,-0.2128,-0.211,-0.2101,-0.208,-0.2055,-0.2055,-0.2026,-0.2009,-0.1978,-0.1967,-0.1943,-0.1952,-0.1942,-0.1939,-0.1937,-0.1934,-0.2,-0.1939,-0.1939,-0.1939,-0.1939,-0.194,0,-0.2161,-0.215,-0.2129,-0.2106,-0.2087,-0.2093,-0.2074,-0.2058,-0.2033,-0.2017,-0.1997,-0.1966,-0.1941,-0.1929,-0.1904,-0.1888,-0.1889,-0.1881,-0.1882,-0.188,-0.1928,-0.1937,-0.188,-0.188,-0.188,-0.188,-0.188,-0.188,-0.213,-0.2098,-0.2094,-0.2055,-0.2045,-0.2017,-0.2006,-0.199,-0.1977,-0.1942,-0.1922,-0.1914,-0.1898,-0.1872,-0.1849,-0.1845,-0.1836,-0.1826,-0.1824,-0.187,-0.1876,-0.1882,-0.189,-0.1824,-0.1824,-0.1777,-0.1777,-0.1777]}]]